When you browse on this site, cookies collect data to enhance your experience and personalize the content and advertising you see.
Visit our Privacy Policy to learn more. By continuing to use the site, you agree to this use of cookies and data.
  • Em Portugal
  • Lista de países
  • Para 7 dias
  • Temperatura da água
  • Mapas de satélite
  • Mapa do tempo
  • Widgets de tempo
  • user-avatar
    Iniciar Sessão

    Previsão horária em Inverclaide

    Hoje, 18 Julho, Quinta-feira

    Tempo Temperatura Precipitação Vento Pressão Humidade
    00:00 +13°C° 0 mm 2 m/s 750 mmHg 96%
    01:00 +13°C° 0 mm 2 m/s 749 mmHg 95%
    02:00 +12°C° 0 mm 2 m/s 749 mmHg 94%
    03:00 +12°C° 0 mm 2 m/s 749 mmHg 92%
    04:00 +12°C° 0 mm 2 m/s 749 mmHg 91%
    05:00 +13°C° 0 mm 2 m/s 749 mmHg 89%
    06:00 +13°C° 0 mm 3 m/s 749 mmHg 88%
    07:00 +14°C° 0 mm 3 m/s 749 mmHg 84%
    08:00 +16°C° 0 mm 3 m/s 749 mmHg 79%
    09:00 +17°C° 0 mm 4 m/s 749 mmHg 75%
    10:00 +17°C° 0.3 mm 4 m/s 749 mmHg 73%
    11:00 +18°C° 0.3 mm 4 m/s 749 mmHg 71%
    12:00 +19°C° 0.3 mm 5 m/s 748 mmHg 70%
    13:00 +19°C° 0.5 mm 5 m/s 749 mmHg 69%
    14:00 +19°C° 0.5 mm 5 m/s 749 mmHg 69%
    15:00 +19°C° 0.5 mm 5 m/s 749 mmHg 69%
    16:00 +17°C° 0.3 mm 5 m/s 749 mmHg 70%
    17:00 +17°C° 0.3 mm 5 m/s 749 mmHg 71%
    18:00 +17°C° 0.3 mm 4 m/s 749 mmHg 73%
    19:00 +15°C° 0 mm 4 m/s 750 mmHg 78%
    20:00 +14°C° 0 mm 3 m/s 750 mmHg 83%
    21:00 +12°C° 0 mm 3 m/s 750 mmHg 89%
    22:00 +12°C° 0 mm 3 m/s 751 mmHg 90%
    23:00 +11°C° 0 mm 3 m/s 751 mmHg 91%

    Amanhã, 19 Julho, Sexta-feira

    Tempo Temperatura Precipitação Vento Pressão Humidade
    00:00 +11°C° 0 mm 3 m/s 751 mmHg 92%
    01:00 +11°C° 0 mm 3 m/s 751 mmHg 92%
    02:00 +11°C° 0 mm 3 m/s 751 mmHg 91%
    03:00 +12°C° 0 mm 2 m/s 751 mmHg 90%
    04:00 +12°C° 0 mm 3 m/s 751 mmHg 89%
    05:00 +12°C° 0 mm 3 m/s 751 mmHg 87%
    06:00 +13°C° 0 mm 3 m/s 751 mmHg 85%
    07:00 +14°C° 0 mm 3 m/s 751 mmHg 78%
    08:00 +17°C° 0 mm 3 m/s 751 mmHg 71%
    09:00 +18°C° 0 mm 3 m/s 751 mmHg 64%
    10:00 +19°C° 0.1 mm 3 m/s 751 mmHg 63%
    11:00 +19°C° 0.1 mm 2 m/s 751 mmHg 61%
    12:00 +20°C° 0.1 mm 2 m/s 751 mmHg 59%
    13:00 +20°C° 0.4 mm 2 m/s 751 mmHg 62%
    14:00 +21°C° 0.4 mm 1 m/s 750 mmHg 64%
    15:00 +21°C° 0.4 mm 1 m/s 750 mmHg 67%
    16:00 +20°C° 0.4 mm 1 m/s 750 mmHg 72%
    17:00 +20°C° 0.4 mm 1 m/s 750 mmHg 77%
    18:00 +19°C° 0.4 mm 1 m/s 749 mmHg 82%
    19:00 +18°C° 0.2 mm 1 m/s 749 mmHg 85%
    20:00 +16°C° 0.2 mm 1 m/s 749 mmHg 88%
    21:00 +15°C° 0.2 mm 1 m/s 749 mmHg 91%
    22:00 +14°C° 0 mm 1 m/s 749 mmHg 92%
    23:00 +14°C° 0 mm 1 m/s 749 mmHg 93%

    Depois de amanhã, 20 Julho, Sábado

    Tempo Temperatura Precipitação Vento Pressão Humidade
    00:00 +13°C° 0 mm 1 m/s 749 mmHg 94%
    01:00 +13°C° 0 mm 1 m/s 749 mmHg 94%
    02:00 +13°C° 0 mm 1 m/s 749 mmHg 94%
    03:00 +12°C° 0 mm 1 m/s 749 mmHg 95%
    04:00 +13°C° 0 mm 1 m/s 749 mmHg 94%
    05:00 +13°C° 0 mm 1 m/s 749 mmHg 93%
    06:00 +14°C° 0 mm 1 m/s 749 mmHg 92%
    07:00 +16°C° 0 mm 1 m/s 749 mmHg 85%
    08:00 +18°C° 0 mm 1 m/s 750 mmHg 78%
    09:00 +20°C° 0 mm 1 m/s 750 mmHg 71%
    10:00 +20°C° 0.1 mm 1 m/s 751 mmHg 68%
    11:00 +21°C° 0.1 mm 1 m/s 751 mmHg 65%
    12:00 +22°C° 0.1 mm 1 m/s 751 mmHg 62%
    13:00 +20°C° 0.2 mm 2 m/s 752 mmHg 63%
    14:00 +20°C° 0.2 mm 2 m/s 752 mmHg 63%
    15:00 +20°C° 0.2 mm 2 m/s 752 mmHg 64%
    16:00 +20°C° 0.2 mm 2 m/s 753 mmHg 67%
    17:00 +19°C° 0.2 mm 2 m/s 753 mmHg 71%
    18:00 +18°C° 0.2 mm 2 m/s 754 mmHg 75%
    19:00 +17°C° 0.1 mm 2 m/s 754 mmHg 79%
    20:00 +16°C° 0.1 mm 1 m/s 755 mmHg 83%
    21:00 +14°C° 0.1 mm 1 m/s 756 mmHg 87%
    22:00 +14°C° 0 mm 1 m/s 756 mmHg 88%
    23:00 +13°C° 0 mm 2 m/s 756 mmHg 89%

    21 Julho, Domingo

    Tempo Temperatura Precipitação Vento Pressão Humidade
    00:00 +12°C° 0 mm 2 m/s 756 mmHg 89%
    01:00 +12°C° 0 mm 2 m/s 756 mmHg 90%
    02:00 +10°C° 0 mm 2 m/s 757 mmHg 90%
    03:00 +10°C° 0 mm 2 m/s 757 mmHg 91%
    04:00 +12°C° 0 mm 2 m/s 757 mmHg 88%
    05:00 +13°C° 0 mm 2 m/s 757 mmHg 86%
    06:00 +13°C° 0 mm 2 m/s 757 mmHg 84%
    07:00 +15°C° 0 mm 2 m/s 757 mmHg 78%
    08:00 +16°C° 0 mm 3 m/s 758 mmHg 73%
    09:00 +18°C° 0 mm 3 m/s 758 mmHg 67%
    10:00 +19°C° 0 mm 3 m/s 758 mmHg 65%
    11:00 +19°C° 0 mm 4 m/s 757 mmHg 62%
    12:00 +20°C° 0 mm 4 m/s 757 mmHg 60%
    13:00 +19°C° 0.1 mm 4 m/s 757 mmHg 65%
    14:00 +19°C° 0.1 mm 4 m/s 757 mmHg 71%
    15:00 +18°C° 0.1 mm 4 m/s 756 mmHg 76%
    16:00 +17°C° 0.9 mm 3 m/s 756 mmHg 82%
    17:00 +17°C° 0.9 mm 3 m/s 756 mmHg 87%
    18:00 +16°C° 0.9 mm 3 m/s 756 mmHg 93%
    19:00 +16°C° 0.2 mm 2 m/s 756 mmHg 94%
    20:00 +16°C° 0.2 mm 2 m/s 756 mmHg 94%
    21:00 +15°C° 0.2 mm 2 m/s 756 mmHg 95%
    22:00 +16°C° 0.3 mm 2 m/s 756 mmHg 96%
    23:00 +16°C° 0.3 mm 1 m/s 756 mmHg 96%

    22 Julho, Segunda-feira

    Tempo Temperatura Precipitação Vento Pressão Humidade
    00:00 +16°C° 0.3 mm 1 m/s 755 mmHg 96%
    01:00 +16°C° 0.2 mm 1 m/s 755 mmHg 96%
    02:00 +16°C° 0.2 mm 1 m/s 754 mmHg 96%
    03:00 +16°C° 0.2 mm 1 m/s 754 mmHg 96%
    04:00 +16°C° 0.7 mm 1 m/s 753 mmHg 96%
    05:00 +16°C° 0.7 mm 2 m/s 753 mmHg 96%
    06:00 +17°C° 0.7 mm 2 m/s 753 mmHg 96%
    07:00 +17°C° 0.4 mm 2 m/s 753 mmHg 94%
    08:00 +18°C° 0.4 mm 3 m/s 754 mmHg 92%
    09:00 +19°C° 0.4 mm 4 m/s 754 mmHg 89%
    10:00 +20°C° 0 mm 4 m/s 754 mmHg 87%
    11:00 +20°C° 0 mm 5 m/s 755 mmHg 85%
    12:00 +21°C° 0 mm 5 m/s 755 mmHg 83%
    13:00 +21°C° 0 mm 5 m/s 756 mmHg 78%
    14:00 +22°C° 0 mm 6 m/s 756 mmHg 73%
    15:00 +23°C° 0 mm 6 m/s 756 mmHg 68%
    16:00 +23°C° 0 mm 6 m/s 756 mmHg 68%
    17:00 +23°C° 0 mm 6 m/s 756 mmHg 69%
    18:00 +23°C° 0 mm 5 m/s 757 mmHg 69%
    19:00 +22°C° 0 mm 4 m/s 757 mmHg 76%
    20:00 +20°C° 0 mm 4 m/s 757 mmHg 82%
    21:00 +19°C° 0 mm 3 m/s 758 mmHg 88%
    22:00 +19°C° 0 mm 3 m/s 758 mmHg 90%
    23:00 +18°C° 0 mm 3 m/s 758 mmHg 91%

    23 Julho, Terça-feira

    Tempo Temperatura Precipitação Vento Pressão Humidade
    00:00 +18°C° 0 mm 3 m/s 758 mmHg 92%
    01:00 +17°C° 0 mm 3 m/s 758 mmHg 93%
    02:00 +17°C° 0 mm 3 m/s 758 mmHg 94%
    03:00 +16°C° 0 mm 3 m/s 758 mmHg 95%
    04:00 +17°C° 0 mm 2 m/s 758 mmHg 93%
    05:00 +17°C° 0 mm 2 m/s 758 mmHg 91%
    06:00 +18°C° 0 mm 2 m/s 758 mmHg 89%
    07:00 +19°C° 0 mm 2 m/s 758 mmHg 81%
    08:00 +21°C° 0 mm 3 m/s 758 mmHg 73%
    09:00 +24°C° 0 mm 3 m/s 758 mmHg 65%
    10:00 +25°C° 0 mm 3 m/s 758 mmHg 61%
    11:00 +26°C° 0 mm 3 m/s 758 mmHg 57%
    12:00 +27°C° 0 mm 3 m/s 758 mmHg 53%
    13:00 +27°C° 0 mm 4 m/s 758 mmHg 53%
    14:00 +28°C° 0 mm 4 m/s 758 mmHg 53%
    15:00 +28°C° 0 mm 4 m/s 757 mmHg 52%
    16:00 +27°C° 0 mm 4 m/s 757 mmHg 56%
    17:00 +27°C° 0 mm 4 m/s 757 mmHg 60%
    18:00 +26°C° 0 mm 3 m/s 757 mmHg 64%
    19:00 +25°C° 0 mm 3 m/s 757 mmHg 71%
    20:00 +23°C° 0 mm 2 m/s 756 mmHg 79%
    21:00 +21°C° 0 mm 1 m/s 756 mmHg 86%
    22:00 +21°C° 0.4 mm 1 m/s 756 mmHg 88%
    23:00 +21°C° 0.4 mm 1 m/s 756 mmHg 90%
    Mostrar mais